Location: Bemmer
(51.5498°N, 5.6249°E)
Time: 11:49:38
(UTC+00:00)

H-2A R/B - Pass Details

Date: 03 March 2021
Orbit: 578 x 654 km, 98.5° (Epoch: 16 April)

Event Time Altitude Azimuth Distance (km) Brightness Sun altitude
Rises 18:29:55 0° 6° (N) 2,813 5.4 -11.4°
Reaches altitude 10° 18:32:19 10° 354° (N) 1,905 4.7 -11.8°
Maximum altitude 18:35:45 26° 298° (WNW) 1,147 4.3 -12.3°
Drops below altitude 10° 18:39:11 10° 241° (WSW) 1,896 5.4 -12.8°
Sets 18:41:35 0° 228° (SW) 2,796 6.1 -13.2°
